Weather History for Tacoma Narrows, WA

Change the Weather History Date:

Monday, February 11, 2013

  Actual Average Record
Temperature  
Mean Temperature 42 °F -  
Max Temperature 45 °F 46 °F 57 °F (2004)
Min Temperature 39 °F 36 °F 32 °F (2002)
Degree Days  
Heating Degree Days 23    
Moisture  
Dew Point 38 °F    
Average Humidity 84    
Maximum Humidity 93    
Minimum Humidity 73    
Precipitation  
Precipitation 0.01 in - - ()
Sea Level Pressure  
Sea Level Pressure 30.35 in    
Wind  
Wind Speed 2 mph (South)    
Max Wind Speed 8 mph    
Max Gust Speed -    
Visibility 8 miles    
Events      
Averages and records for this station are not official NWS values.
T = Trace of Precipitation, MM = Missing Value Source: NWS Daily Summary

Daily Weather History Graph

Daily Weather History Graph

Search for Another Location

Airport:

Trip Planner

Search our weather history database for the weather conditions in past years. The results will help you decide how hot, cold, wet, or windy it might be!

Date:

Astronomy

Feb. 11, 2013 Rise Set
Actual Time 7:21 AM PST 5:28 PM PST
Civil Twilight 6:49 AM PST 6:00 PM PST
Nautical Twilight 6:13 AM PST 6:36 PM PST
Astronomical Twilight 5:37 AM PST 7:11 PM PST
Moon 7:38 AM PST (2/11) 7:43 PM PST (2/11)
Length of Visible Light 11h 11m
Length of Day
10h 07m
Waxing Crescent, 3% of the Moon is Illuminated
Feb 11
Waxing Crescent
Feb 17
First Quarter
Feb 25
Full
Mar 4
Last Quarter
Mar 11
New

Hourly Weather History & Observations

Time (PST) Temp. Windchill Dew Point Humidity Pressure Visibility Wind Dir Wind Speed Gust Speed Precip Events Conditions
12:53 AM 42.1 °F - 36.0 °F 79% 30.36 in 10.0 mi Calm Calm - N/A   Overcast
1:53 AM 42.1 °F - 36.0 °F 79% 30.36 in 10.0 mi Calm Calm - N/A   Overcast
2:53 AM 42.1 °F - 36.0 °F 79% 30.35 in 10.0 mi Calm Calm - N/A   Overcast
3:09 AM 42.8 °F - 35.6 °F 76% 30.34 in 10.0 mi Calm Calm - N/A   Overcast
3:53 AM 41.0 °F - 36.0 °F 82% 30.35 in 10.0 mi Calm Calm - N/A   Overcast
4:53 AM 41.0 °F - 36.0 °F 82% 30.35 in 10.0 mi Calm Calm - N/A   Overcast
5:44 AM 39.2 °F - 35.6 °F 87% 30.34 in 10.0 mi Calm Calm - N/A   Overcast
5:53 AM 41.0 °F - 36.0 °F 82% 30.35 in 10.0 mi Calm Calm - N/A   Overcast
6:35 AM 39.2 °F - 35.6 °F 87% 30.34 in 10.0 mi Calm Calm - N/A   Mostly Cloudy
6:53 AM 39.9 °F - 35.1 °F 83% 30.35 in 10.0 mi Calm Calm - N/A   Overcast
7:53 AM 39.9 °F 37.8 °F 37.0 °F 89% 30.35 in 10.0 mi SW 3.5 mph - N/A   Mostly Cloudy
8:53 AM 41.0 °F 39.0 °F 37.9 °F 89% 30.35 in 10.0 mi SSW 3.5 mph - N/A   Mostly Cloudy
9:53 AM 43.0 °F 40.3 °F 37.0 °F 80% 30.37 in 10.0 mi South 4.6 mph - N/A   Mostly Cloudy
10:53 AM 43.0 °F 40.3 °F 36.0 °F 76% 30.37 in 10.0 mi South 4.6 mph - N/A   Overcast
11:53 AM 44.1 °F 40.1 °F 36.0 °F 73% 30.36 in 10.0 mi SSW 6.9 mph - N/A   Overcast
12:53 PM 45.0 °F 41.2 °F 37.0 °F 74% 30.35 in 10.0 mi South 6.9 mph - N/A   Overcast
1:00 PM 44.6 °F 41.4 °F 37.4 °F 76% 30.34 in 10.0 mi SSW 5.8 mph - N/A   Overcast
1:53 PM 45.0 °F 40.6 °F 37.9 °F 76% 30.34 in 10.0 mi South 8.1 mph - N/A   Overcast
2:53 PM 44.1 °F 40.8 °F 39.0 °F 82% 30.34 in 10.0 mi South 5.8 mph - N/A   Overcast
3:53 PM 45.0 °F 42.6 °F 39.0 °F 80% 30.34 in 10.0 mi South 4.6 mph - N/A   Overcast
4:53 PM 44.1 °F 41.5 °F 39.9 °F 85% 30.34 in 10.0 mi South 4.6 mph - N/A   Overcast
5:53 PM 44.1 °F 41.5 °F 41.0 °F 89% 30.35 in 3.0 mi South 4.6 mph - N/A   Overcast
6:53 PM 44.1 °F - 42.1 °F 93% 30.35 in 5.0 mi Calm Calm - N/A   Overcast
7:53 PM 44.1 °F 42.5 °F 42.1 °F 93% 30.35 in 4.0 mi SE 3.5 mph - 0.01 in   Overcast
8:44 PM 44.6 °F 43.1 °F 42.8 °F 93% 30.34 in 4.0 mi SSE 3.5 mph - N/A   Overcast
8:53 PM 44.1 °F 42.5 °F 42.1 °F 93% 30.34 in 2.5 mi SE 3.5 mph - N/A   Overcast
9:02 PM 44.6 °F 43.1 °F 42.8 °F 93% 30.33 in 3.0 mi SSE 3.5 mph - N/A   Overcast
9:53 PM 44.1 °F 40.8 °F 42.1 °F 93% 30.34 in 4.0 mi South 5.8 mph - N/A   Overcast
10:53 PM 44.1 °F 41.5 °F 42.1 °F 93% 30.35 in 6.0 mi SSW 4.6 mph - N/A   Overcast
11:53 PM 45.0 °F 43.5 °F 43.0 °F 93% 30.36 in 9.0 mi South 3.5 mph - N/A   Overcast